Showing default

GONETS D1 4, 24728

Orbit data source: Space-Track

GONETS D1 4, 24728 is a payload satellite owned by Gonets (CIS) in LEO that was launched on Fri, 14 Feb 1997 UTC via a TSIKLON-3 launch vehicle from the Plesetsk Missile And Space Complex (PKMTR). Payload-class satellites include a variety of spacecraft equipped with specific instruments for various scientific and technological missions. These include communications satellites like Starlink; space stations such as the ISS; scientific satellites like the Hubble; Earth observation satellites from companies like Planet Labs, Umbra, and HawkEye 360; GPS; miniature CubeSats for education and research; and military/defense satellites.

Loading next visibility...
Identifier
24728, 1997-006D
Orbit
LEO
Country
Flag of CISCIS
Related business
Manufacturer
NPO PM
Mission
Non-operational Civil Communications
Bus & Motor
STRELA-3, Unknown motor
Mass
225 kg wet, 225 kg dry
Launch date (UTC)
1997-02-14 (29 years ago)
Launch vehicle
TSIKLON-3
Launch site
Plesetsk Missile And Space Complex (PKMTR)
Object type
Payload
Rocket body
Debris
Shape & HBR
Cyl + 1 Ant, 3.5 m
Radar Cross Section
1.798 m², Medium (>0.1 m² and < 1m²)

Expand to show TLE details & history
Last TLE update: 12 hours ago

TLE from 12 hours ago
0 GONETS D1 4
1 24728U 97006D   25307.94439779  .00000019  00000-0  44749-4 0  9996
2 24728  82.6090  19.9457 0007051 339.7751  20.3061 12.63916016324751
Epoch: 2025-11-03T22:39Z
TLE epoch observation values (Epoch: 2025-11-03T22:39:55.969Z)
Latitude
0.00002°
Longitude
-3.47601°
Altitude
1,404.407 km
Speed
7.16 km/s
True Right ascension
01h 19m 46s
True Declination
0° 00' 00"
Sunlit
Object was in full shadow at epoch
Visualization orbit readout
Latitude
Unknown
Longitude
Unknown
Altitude
Unknown
Speed
Unknown
Apparent Right ascension
Unknown
Apparent Declination
Unknown
Sunlit
N/A
Visualization observer readout
Local Sidereal Time
06:59:26
Azimuth
Unknown
Elevation
Unknown
Doppler factor
Unknown
Orbital elements
Apogee altitude
1,409.627 km
Perigee altitude
1,398.653 km
Semi-major axis
7,782.277 km
Eccentricity
0.00071
Inclination
82.609°
RAAN
19.9457°
Arg. of periapsis
339.7751°
True anomaly
20.33416°
Mean anomaly
20.3061°
Eccentric anomaly
20.32013°
Mean motion
3.16143 °/min
Orbital period
113.87 mins
BSTAR
0.000044749
Loading maneuver chart data...
Computing Atmospheric mass density...
Loading historical data...
Loading historical data...
Loading historical data...
Loading historical data...
Loading historical data...
Loading historical data...
Loading historical data...

Documentation

Showing up to 5 results
|